| time (UTC) | temp F | wind direction | speed MPH | gust MPH | rain 1hr in | rain 24hr in | rain mn in | humidity % | barometer mb |
| 20260505054522 | 68 | 238 | 8.0 | 13.0 | 0.00 | 0.01 | 0.01 | 58 | 1008.7 |
| 20260505054021 | 68 | 222 | 6.0 | 13.0 | 0.00 | 0.01 | 0.01 | 58 | 1008.8 |
| 20260505053522 | 69 | 209 | 6.0 | 13.0 | 0.00 | 0.01 | 0.01 | 57 | 1008.7 |
| 20260505053021 | 68 | 212 | 5.0 | 13.0 | 0.00 | 0.01 | 0.01 | 57 | 1008.6 |
| 20260505052521 | 69 | 219 | 6.0 | 13.0 | 0.00 | 0.01 | 0.01 | 57 | 1008.6 |
| 20260505052021 | 69 | 211 | 4.0 | 13.0 | 0.00 | 0.01 | 0.01 | 57 | 1008.6 |
| 20260505051521 | 69 | 253 | 7.0 | 13.0 | 0.00 | 0.01 | 0.01 | 57 | 1008.6 |
| 20260505051021 | 69 | 232 | 7.0 | 13.0 | 0.00 | 0.01 | 0.01 | 57 | 1008.6 |
| 20260505050520 | 69 | 221 | 5.0 | 10.0 | 0.00 | 0.01 | 0.01 | 57 | 1008.5 |
| 20260505041516 | 69 | 224 | 5.0 | 8.0 | 0.00 | 0.01 | 0.01 | 56 | 1008.0 |
| 20260505041018 | 69 | 219 | 5.0 | 8.0 | 0.00 | 0.01 | 0.01 | 56 | 1008.0 |
| 20260505040521 | 69 | 214 | 3.0 | 8.0 | 0.00 | 0.01 | 0.01 | 55 | 1008.0 |
| 20260505040022 | 69 | 221 | 3.0 | 8.0 | 0.00 | 0.01 | 0.01 | 55 | 1007.9 |
| 20260505035516 | 69 | 213 | 4.0 | 8.0 | 0.00 | 0.01 | 0.01 | 55 | 1007.8 |
| 20260505035016 | 69 | 181 | 3.0 | 9.0 | 0.00 | 0.01 | 0.01 | 55 | 1007.8 |
| 20260505034514 | 69 | 215 | 4.0 | 9.0 | 0.00 | 0.01 | 0.01 | 55 | 1007.8 |
| 20260505034017 | 70 | 201 | 5.0 | 9.0 | 0.00 | 0.01 | 0.01 | 55 | 1007.8 |
| 20260505033514 | 70 | 213 | 3.0 | 9.0 | 0.00 | 0.01 | 0.01 | 55 | 1007.9 |
| 20260505033015 | 70 | 238 | 3.0 | 8.0 | 0.00 | 0.01 | 0.01 | 55 | 1007.8 |
| 20260505032514 | 70 | 219 | 4.0 | 8.0 | 0.00 | 0.01 | 0.01 | 55 | 1007.7 |
| 20260505032016 | 70 | 203 | 3.0 | 12.0 | 0.00 | 0.01 | 0.01 | 55 | 1007.7 |
| 20260505031513 | 70 | 226 | 4.0 | 12.0 | 0.00 | 0.01 | 0.01 | 55 | 1007.7 |
| 20260505031014 | 70 | 207 | 5.0 | 8.0 | 0.00 | 0.01 | 0.01 | 55 | 1007.7 |
| 20260505030513 | 70 | 213 | 5.0 | 8.0 | 0.00 | 0.01 | 0.01 | 55 | 1007.6 |
| 20260505030013 | 70 | 219 | 3.0 | 12.0 | 0.00 | 0.01 | 0.01 | 55 | 1007.7 |
| 20260505025515 | 70 | 200 | 3.0 | 12.0 | 0.00 | 0.01 | 0.01 | 55 | 1007.7 |
| 20260505025012 | 70 | 210 | 3.0 | 8.0 | 0.00 | 0.01 | 0.01 | 55 | 1007.7 |
| 20260505024511 | 70 | 204 | 2.0 | 9.0 | 0.00 | 0.01 | 0.01 | 56 | 1007.7 |
| 20260505024010 | 71 | 219 | 4.0 | 8.0 | 0.00 | 0.01 | 0.01 | 55 | 1007.7 |
| 20260505023510 | 71 | 185 | 4.0 | 8.0 | 0.00 | 0.01 | 0.01 | 55 | 1007.7 |
| 20260505023010 | 71 | 216 | 3.0 | 10.0 | 0.00 | 0.01 | 0.01 | 55 | 1007.7 |
| 20260505022510 | 71 | 236 | 4.0 | 10.0 | 0.00 | 0.01 | 0.01 | 55 | 1007.7 |
| 20260505022010 | 71 | 185 | 5.0 | 10.0 | 0.00 | 0.01 | 0.01 | 55 | 1007.6 |
| 20260505021510 | 71 | 190 | 4.0 | 8.0 | 0.00 | 0.01 | 0.01 | 55 | 1007.6 |
| 20260505021010 | 71 | 224 | 5.0 | 8.0 | 0.00 | 0.01 | 0.01 | 55 | 1007.5 |
| 20260505020509 | 71 | 188 | 2.0 | 8.0 | 0.00 | 0.01 | 0.01 | 55 | 1007.5 |
| 20260505020009 | 71 | 192 | 4.0 | 8.0 | 0.00 | 0.01 | 0.01 | 55 | 1007.5 |
| 20260505015509 | 71 | 204 | 3.0 | 7.0 | 0.00 | 0.01 | 0.01 | 55 | 1007.5 |
| 20260505015009 | 72 | 202 | 2.0 | 7.0 | 0.00 | 0.01 | 0.01 | 55 | 1007.5 |
| 20260505014559 | 72 | 195 | 3.0 | 7.0 | 0.00 | 0.01 | 0.01 | 54 | 1007.5 |
| 20260505014038 | 72 | 223 | 1.0 | 8.0 | 0.00 | 0.01 | 0.01 | 54 | 1007.4 |
| 20260505013538 | 72 | 218 | 3.0 | 8.0 | 0.00 | 0.01 | 0.01 | 54 | 1007.3 |
| 20260505013048 | 72 | 212 | 4.0 | 7.0 | 0.00 | 0.01 | 0.01 | 54 | 1007.3 |
| 20260505012539 | 72 | 209 | 2.0 | 6.0 | 0.00 | 0.01 | 0.01 | 54 | 1007.3 |
| 20260505012038 | 72 | 202 | 1.0 | 6.0 | 0.00 | 0.01 | 0.01 | 54 | 1007.2 |
| 20260505011540 | 72 | 209 | 1.0 | 5.0 | 0.00 | 0.01 | 0.01 | 54 | 1007.2 |
| 20260505011038 | 73 | 200 | 1.0 | 4.0 | 0.00 | 0.01 | 0.01 | 53 | 1007.3 |
| 20260505010535 | 73 | 196 | 1.0 | 8.0 | 0.00 | 0.01 | 0.01 | 53 | 1007.3 |
| 20260505010043 | 73 | 195 | 1.0 | 8.0 | 0.00 | 0.01 | 0.01 | 53 | 1007.3 |
| 20260505005537 | 73 | 205 | 1.0 | 5.0 | 0.00 | 0.01 | 0.01 | 52 | 1007.3 |
| 20260505005035 | 74 | 212 | 1.0 | 5.0 | 0.00 | 0.01 | 0.01 | 52 | 1007.4 |
| 20260505004546 | 74 | 217 | 1.0 | 5.0 | 0.00 | 0.01 | 0.01 | 51 | 1007.3 |
| 20260505004034 | 74 | 205 | 2.0 | 8.0 | 0.00 | 0.01 | 0.01 | 51 | 1007.3 |
| 20260505003534 | 75 | 211 | 2.0 | 8.0 | 0.00 | 0.01 | 0.01 | 51 | 1007.3 |
| 20260505003051 | 75 | 217 | 1.0 | 7.0 | 0.00 | 0.01 | 0.01 | 50 | 1007.3 |
| 20260505002534 | 75 | 225 | 4.0 | 7.0 | 0.00 | 0.01 | 0.01 | 50 | 1007.3 |
| 20260505002034 | 75 | 209 | 3.0 | 6.0 | 0.00 | 0.01 | 0.01 | 49 | 1007.2 |
| 20260505001534 | 76 | 219 | 2.0 | 9.0 | 0.00 | 0.01 | 0.01 | 49 | 1007.2 |
| 20260505001008 | 76 | 219 | 5.0 | 9.0 | 0.00 | 0.01 | 0.01 | 49 | 1007.1 |
| 20260505000506 | 76 | 223 | 5.0 | 8.0 | 0.00 | 0.01 | 0.01 | 48 | 1007.2 |
| 20260505000010 | 76 | 219 | 4.0 | 9.0 | 0.00 | 0.01 | 0.01 | 48 | 1007.1 |
| 20260504235503 | 76 | 233 | 6.0 | 10.0 | 0.00 | 0.01 | 0.01 | 48 | 1007.2 |
| 20260504235002 | 76 | 223 | 6.0 | 11.0 | 0.00 | 0.01 | 0.01 | 48 | 1007.3 |
| 20260504234502 | 76 | 269 | 7.0 | 11.0 | 0.00 | 0.01 | 0.01 | 47 | 1007.3 |
| 20260504234100 | 76 | 237 | 5.0 | 8.0 | 0.00 | 0.01 | 0.01 | 47 | 1007.4 |
| 20260504233601 | 77 | 212 | 5.0 | 14.0 | 0.00 | 0.01 | 0.01 | 47 | 1007.3 |
| 20260504233103 | 77 | 215 | 8.0 | 14.0 | 0.00 | 0.01 | 0.01 | 46 | 1007.3 |
| 20260504232604 | 77 | 231 | 8.0 | 13.0 | 0.00 | 0.01 | 0.01 | 46 | 1007.3 |
| 20260504232101 | 78 | 220 | 7.0 | 16.0 | 0.00 | 0.01 | 0.01 | 46 | 1007.3 |
| 20260504231559 | 78 | 218 | 9.0 | 14.0 | 0.00 | 0.01 | 0.01 | 45 | 1007.3 |
| 20260504231059 | 78 | 275 | 6.0 | 12.0 | 0.00 | 0.01 | 0.01 | 45 | 1007.3 |
| 20260504230602 | 78 | 227 | 5.0 | 14.0 | 0.00 | 0.01 | 0.01 | 45 | 1007.3 |
| 20260504230100 | 78 | 239 | 9.0 | 15.0 | 0.00 | 0.01 | 0.01 | 44 | 1007.3 |
| 20260504225601 | 79 | 230 | 9.0 | 14.0 | 0.00 | 0.01 | 0.01 | 43 | 1007.2 |
| 20260504225059 | 79 | 228 | 6.0 | 16.0 | 0.00 | 0.01 | 0.01 | 44 | 1007.3 |
| 20260504224558 | 79 | 252 | 7.0 | 16.0 | 0.00 | 0.01 | 0.01 | 44 | 1007.3 |
| 20260504224058 | 79 | 234 | 6.0 | 13.0 | 0.00 | 0.01 | 0.01 | 45 | 1007.3 |
| 20260504223559 | 78 | 215 | 7.0 | 11.0 | 0.00 | 0.01 | 0.01 | 46 | 1007.4 |
| 20260504223110 | 78 | 224 | 5.0 | 9.0 | 0.00 | 0.01 | 0.01 | 47 | 1007.4 |
| 20260504222554 | 78 | 248 | 5.0 | 9.0 | 0.00 | 0.01 | 0.01 | 47 | 1007.3 |
| 20260504222053 | 78 | 225 | 4.0 | 8.0 | 0.00 | 0.01 | 0.01 | 47 | 1007.5 |
| 20260504221553 | 78 | 214 | 4.0 | 10.0 | 0.00 | 0.01 | 0.01 | 47 | 1007.6 |
| 20260504221052 | 79 | 203 | 6.0 | 10.0 | 0.00 | 0.01 | 0.01 | 46 | 1007.6 |
| 20260504220551 | 78 | 219 | 3.0 | 12.0 | 0.00 | 0.01 | 0.01 | 47 | 1007.6 |
| 20260504220052 | 78 | 248 | 6.0 | 13.0 | 0.00 | 0.01 | 0.01 | 47 | 1007.7 |
| 20260504215555 | 78 | 226 | 6.0 | 13.0 | 0.00 | 0.01 | 0.01 | 47 | 1007.7 |
| 20260504215050 | 78 | 224 | 6.0 | 13.0 | 0.00 | 0.01 | 0.01 | 48 | 1007.7 |
| 20260504214551 | 78 | 225 | 5.0 | 14.0 | 0.00 | 0.01 | 0.01 | 47 | 1007.7 |
| 20260504214025 | 78 | 274 | 8.0 | 13.0 | 0.00 | 0.01 | 0.01 | 47 | 1007.7 |
| 20260504213520 | 79 | 223 | 7.0 | 13.0 | 0.00 | 0.01 | 0.01 | 47 | 1007.7 |
| 20260504213025 | 79 | 245 | 6.0 | 13.0 | 0.00 | 0.01 | 0.01 | 48 | 1007.8 |
| 20260504212519 | 78 | 223 | 7.0 | 13.0 | 0.00 | 0.01 | 0.01 | 48 | 1007.7 |
| 20260504212018 | 78 | 234 | 6.0 | 11.0 | 0.00 | 0.01 | 0.01 | 48 | 1007.9 |
| 20260504211529 | 79 | 254 | 5.0 | 13.0 | 0.00 | 0.01 | 0.01 | 49 | 1007.9 |
| 20260504211015 | 79 | 210 | 7.0 | 14.0 | 0.00 | 0.01 | 0.01 | 49 | 1008.0 |
| 20260504210515 | 78 | 202 | 5.0 | 14.0 | 0.00 | 0.01 | 0.01 | 50 | 1008.1 |
| 20260504210015 | 77 | 225 | 6.0 | 14.0 | 0.00 | 0.01 | 0.01 | 51 | 1008.2 |
| 20260504205513 | 77 | 226 | 8.0 | 13.0 | 0.00 | 0.01 | 0.01 | 50 | 1008.2 |
| 20260504205012 | 78 | 189 | 7.0 | 18.0 | 0.00 | 0.01 | 0.01 | 50 | 1008.2 |
| 20260504204518 | 78 | 194 | 8.0 | 15.0 | 0.00 | 0.01 | 0.01 | 49 | 1008.3 |
| 20260504204011 | 78 | 197 | 7.0 | 13.0 | 0.00 | 0.01 | 0.01 | 49 | 1008.3 |
| 20260504203511 | 79 | 217 | 6.0 | 13.0 | 0.00 | 0.01 | 0.01 | 49 | 1008.4 |
| 20260504203010 | 78 | 237 | 6.0 | 13.0 | 0.00 | 0.01 | 0.01 | 51 | 1008.4 |
| 20260504202509 | 78 | 219 | 7.0 | 16.0 | 0.00 | 0.01 | 0.01 | 50 | 1008.5 |
| 20260504202009 | 77 | 294 | 4.0 | 15.0 | 0.00 | 0.01 | 0.01 | 51 | 1008.5 |
| 20260504201508 | 78 | 211 | 7.0 | 15.0 | 0.00 | 0.01 | 0.01 | 50 | 1008.6 |
| 20260504201004 | 77 | 234 | 3.0 | 16.0 | 0.00 | 0.01 | 0.01 | 52 | 1008.5 |
| 20260504200502 | 76 | 206 | 6.0 | 16.0 | 0.00 | 0.01 | 0.01 | 52 | 1008.7 |
| 20260504200005 | 76 | 221 | 6.0 | 14.0 | 0.00 | 0.01 | 0.01 | 53 | 1008.8 |
| 20260504195502 | 75 | 213 | 6.0 | 14.0 | 0.00 | 0.01 | 0.01 | 54 | 1008.8 |
| 20260504195100 | 75 | 223 | 8.0 | 14.0 | 0.00 | 0.01 | 0.01 | 52 | 1008.9 |
| 20260504195001 | 75 | 234 | 8.0 | 14.0 | 0.00 | 0.01 | 0.01 | 53 | 1008.9 |
| 20260504194605 | 75 | 236 | 6.0 | 19.0 | 0.00 | 0.01 | 0.01 | 54 | 1008.9 |
| 20260504194059 | 74 | 213 | 10.0 | 19.0 | 0.00 | 0.01 | 0.01 | 54 | 1009.0 |
| 20260504193557 | 73 | 210 | 9.0 | 16.0 | 0.00 | 0.01 | 0.01 | 54 | 1009.0 |
| 20260504193107 | 73 | 215 | 9.0 | 16.0 | 0.00 | 0.01 | 0.01 | 55 | 1009.2 |
| 20260504192556 | 73 | 215 | 9.0 | 16.0 | 0.00 | 0.01 | 0.01 | 54 | 1009.2 |
| 20260504192056 | 73 | 208 | 10.0 | 16.0 | 0.00 | 0.01 | 0.01 | 55 | 1009.3 |
| 20260504191610 | 73 | 219 | 8.0 | 15.0 | 0.00 | 0.01 | 0.01 | 55 | 1009.4 |
| 20260504191056 | 71 | 207 | 4.0 | 16.0 | 0.00 | 0.01 | 0.01 | 58 | 1009.4 |
| 20260504190554 | 71 | 236 | 9.0 | 16.0 | 0.00 | 0.01 | 0.01 | 56 | 1009.5 |
| 20260504190107 | 70 | 217 | 7.0 | 15.0 | 0.00 | 0.01 | 0.01 | 61 | 1009.4 |
| 20260504185554 | 69 | 227 | 7.0 | 15.0 | 0.00 | 0.01 | 0.01 | 63 | 1009.6 |
| 20260504185053 | 68 | 227 | 7.0 | 16.0 | 0.00 | 0.01 | 0.01 | 65 | 1009.7 |
| 20260504184555 | 67 | 216 | 7.0 | 13.0 | 0.00 | 0.01 | 0.01 | 67 | 1009.8 |
| 20260504184053 | 67 | 206 | 3.0 | 15.0 | 0.00 | 0.01 | 0.01 | 72 | 1010.0 |
| 20260504183555 | 66 | 217 | 7.0 | 15.0 | 0.00 | 0.01 | 0.01 | 67 | 1010.0 |
| 20260504183053 | 67 | 182 | 7.0 | 15.0 | 0.00 | 0.01 | 0.01 | 65 | 1009.4 |
| 20260504182552 | 68 | 258 | 6.0 | 15.0 | 0.00 | 0.01 | 0.01 | 62 | 1010.4 |
| 20260504182051 | 68 | 232 | 8.0 | 19.0 | 0.00 | 0.01 | 0.01 | 59 | 1010.9 |
| 20260504181559 | 69 | 235 | 12.0 | 19.0 | 0.00 | 0.01 | 0.01 | 57 | 1011.1 |
| 20260504181051 | 70 | 226 | 10.0 | 24.0 | 0.00 | 0.01 | 0.01 | 55 | 1010.9 |
| 20260504180552 | 70 | 202 | 11.0 | 24.0 | 0.00 | 0.01 | 0.01 | 54 | 1010.6 |
| 20260504180052 | 71 | 234 | 13.0 | 18.0 | 0.00 | 0.01 | 0.01 | 52 | 1010.4 |
| 20260504175548 | 72 | 218 | 9.0 | 16.0 | 0.00 | 0.01 | 0.01 | 52 | 1010.3 |
| 20260504175049 | 72 | 233 | 9.0 | 21.0 | 0.00 | 0.01 | 0.01 | 52 | 1010.1 |
| 20260504174549 | 73 | 216 | 9.0 | 23.0 | 0.00 | 0.01 | 0.01 | 51 | 1010.0 |
| 20260504174049 | 74 | 229 | 9.0 | 14.0 | 0.00 | 0.01 | 0.01 | 51 | 1009.9 |
| 20260504173548 | 74 | 248 | 4.0 | 14.0 | 0.00 | 0.01 | 0.01 | 52 | 1009.9 |
| 20260504173052 | 73 | 259 | 9.0 | 14.0 | 0.00 | 0.01 | 0.01 | 52 | 1009.8 |
| 20260504172545 | 72 | 219 | 4.0 | 13.0 | 0.00 | 0.01 | 0.01 | 53 | 1009.9 |
| 20260504172044 | 72 | 219 | 7.0 | 13.0 | 0.00 | 0.01 | 0.01 | 53 | 1010.0 |
| 20260504171543 | 71 | 234 | 4.0 | 11.0 | 0.00 | 0.01 | 0.01 | 56 | 1010.0 |
| 20260504171041 | 70 | 207 | 6.0 | 11.0 | 0.00 | 0.01 | 0.01 | 56 | 1010.0 |
| 20260504170536 | 69 | 258 | 5.0 | 13.0 | 0.00 | 0.01 | 0.01 | 59 | 1010.2 |
| 20260504151047 | 62 | 219 | 7.0 | 15.0 | 0.00 | 0.01 | 0.01 | 68 | 1011.8 |
| 20260504150544 | 62 | 225 | 6.0 | 15.0 | 0.00 | 0.01 | 0.01 | 69 | 1011.7 |
| 20260504141026 | 57 | 213 | 6.0 | 16.0 | 0.01 | 0.01 | 0.01 | 78 | 1012.5 |
| 20260504140526 | 57 | 219 | 7.0 | 15.0 | 0.01 | 0.01 | 0.01 | 78 | 1012.7 |
| 20260504130516 | 56 | 292 | 6.0 | 15.0 | 0.00 | 0.00 | 0.00 | 69 | 1013.1 |
| 20260504110552 | 54 | 227 | 2.0 | 7.0 | 0.00 | 0.00 | 0.00 | 62 | 1012.4 |
| 20260504100538 | 53 | 202 | 5.0 | 9.0 | 0.00 | 0.00 | 0.00 | 61 | 1012.4 |
| 20260504081526 | 52 | 177 | 0.0 | 2.0 | 0.00 | 0.00 | 0.00 | 61 | 1013.0 |
| 20260504081026 | 52 | 177 | 0.0 | 2.0 | 0.00 | 0.00 | 0.00 | 61 | 1012.9 |
| 20260504080524 | 52 | 173 | 0.0 | 2.0 | 0.00 | 0.00 | 0.00 | 61 | 1013.0 |